Regional Weather Roundup
Issued by NWS Jackson, KY

Home | Current Version | Previous Version | Graphics & Text | Print | Product List | Glossary On
Versions: 1 2 3 4 5 6 7 8 9 10 11 12 13 14 15 16 17 18 19 20 21 22 23 24 25 26 27 28 29 30 31 32 33 34 35 36 37 38 39 40 41 42 43 44 45 46 47 48 49 50
125
ASUS43 KJKL 131010
RWRJKL

EAST KENTUCKY HOURLY WEATHER ROUNDUP
NATIONAL WEATHER SERVICE JACKSON KY
500 AM EST SAT FEB 13 2016

NOTE: "FAIR" INDICATES FEW OR NO CLOUDS BELOW 12,000 FEET WITH
NO SIGNIFICANT WEATHER AND/OR OBSTRUCTIONS TO VISIBILITY.

* THESE REPORTS ARE NOT UNDER NWS QUALITY CONTROL AND MAY NOT
  REPORT WEATHER SUCH AS PRECIPITATION AND FOG.

KYZ079-080-083-085-087-088-110-112-115-119-120-131100
...EASTERN KENTUCKY...

CITY           SKY/WX    TMP DP  RH WIND       PRES   REMARKS
JACKSON        LGT SNOW  18  10  71 VRB5      30.32R WCI  11
LONDON         FLURRIES  21  12  68 NW9       30.34R WCI  11
SOMERSET*      MOCLDY    21   9  58 N9        30.40R WCI  11
MONTICELLO*    MOCLDY    20  11  68 N13G18    30.40R WCI   7
WILLIAMSBURG*  PTSUNNY   23  14  68 NW10      30.35R WCI  12
MIDDLESBORO*   CLOUDY    23  10  58 NW8G16    30.33R WCI  14
HARLAN APT*    CLOUDY    21   7  53 W7        30.28S WCI  13
HAZARD APT*    CLOUDY    16   7  67 NW8       30.33R WCI   5
BLACK MTN*       N/A      7   7 100 N6          N/A  WCI  -3
BIG SANDY*     CLOUDY    17   9  72 NW10G16   30.32R WCI   4
MOREHEAD APT*  LGT SNOW  16   9  73 NW8G14    30.39R WCI   5
$$

KYZ035-036-041-042-044-050-067-078-099-131100
...CENTRAL KENTUCKY...

CITY           SKY/WX    TMP DP  RH WIND       PRES   REMARKS
MT STERLING*   PTCLDY    18   7  62 N6        30.40R WCI   9
DANVILLE*      FLURRIES  19  12  73 N10G16    30.40R WCI   8
RICHMOND*      CLOUDY    18   5  57 NW13      30.38R WCI   4
LEXINGTON      MOCLDY    17   5  59 NW13      30.39R WCI   4
FRANKFORT      PTCLDY    17   2  51 N12       30.41R WCI   4
$$

KYZ091>093-OHZ055-061-077-WVZ005-015-034-035-042-131100
...SOUTHERN OHIO/WEST VIRGINIA...

CITY           SKY/WX    TMP DP  RH WIND       PRES   REMARKS
COVINGTON      PTCLDY    13   2  61 NW16      30.40R WCI  -3
COLUMBUS       PTCLDY     9  -4  55 NW14      30.35R WCI  -7
DAYTON         CLOUDY    10   1  67 N15       30.38R WCI  -7
WILMINGTON     MOCLDY    11   4  73 NW12      30.34R WCI  -3
HUNTINGTON     MOCLDY    17   3  54 NW6       30.35R WCI   9
CHARLESTON       N/A     16   3  56 NW13      30.31R WCI   2
PINEVILLE*     LGT SNOW  16   7  69 MISG      30.26R
BECKLEY        LGT SNOW  11   5  77 NW12      30.14R WCI  -3
$$

VAZ002-007-008-TNZ017-027-036-066-071-131100
...SOUTHWEST VIRGINIA/EAST TENNESSEE...

CITY           SKY/WX    TMP DP  RH WIND       PRES   REMARKS
BRISTOL        CLOUDY    23   9  55 W12       30.23R WCI  12
KNOXVILLE      CLOUDY    26  12  55 N13       30.32R WCI  15
OAK RIDGE      CLOUDY    26  11  52 N8        30.35R WCI  18
CROSSVILLE     CLOUDY    20   9  62 NW13      30.31R WCI   7
NASHVILLE      CLEAR     24  10  55 NW12G21   30.45S WCI  13
$$

...KEY TO REMARKS...
VSB - VISIBILITY IN MILES
WCI - WIND CHILL INDEX
HX  - HEAT INDEX

$$




USA.gov is the U.S. government's official web portal to all federal, state and local government web resources and services.